Location: Anumalkud?ru
(16.4847°N, 80.6636°E)
Time: 09:47:24
(UTC+00:00)

USA 215 - Pass Details

Date: 11 April 2026
Orbit: 1098 x 1109 km, 123.0° (Epoch: 10 January)

Event Time Altitude Azimuth Distance (km) Brightness Sun altitude
Rises 23:15:43 0° 48° (NE) 3,925 7.3 -17.0°
Reaches altitude 10° 23:18:20 10° 54° (NE) 2,966 6.6 -16.4°
Maximum altitude 23:24:32 45° 125° (SE) 1,464 4.2 -14.9°
Drops below altitude 10° 23:30:43 10° 196° (SSW) 2,959 5.2 -13.5°
Sets 23:33:18 0° 203° (SSW) 3,914 5.8 -12.9°
